contact:dominique.lefevre@mio.osupytheas.fr, maurice.libes@osupytheas.fr, didier.mallarino@osupytheas.fr
Project:EMSO http://www.emso-fr.org/EMSO-France
Depth: 2436.0 m
Title:EMSO Ligure Ouest : Data MII capteur AQUADOPP
Date,Latitude,Longitude,X_East,Y_North,Z_Up,Amplitude_X,Amplitude_Y,Amplitude_Z,Batterie,SoundSpeed,Heading,Pitch,Roll,Pressure,TIS,Speed,Direction
, degrees North, degrees East, m.s-1, m.s-1,m.s-1, 1, 1, 1, Volt, m.s-1, degree, degree, degree, dbar, degree_C, m.s-1, degree
2020-05-08T00:04:02,42.805,6.029,-0.09,0.029,-0.059,103.0,105.0,100.0,13.4,1505.3,325.7,-0.7,1.8,2470.291,13.31,0.094,287.9
2020-05-08T00:07:03,42.805,6.029,-0.023,0.018,-0.043,103.0,105.0,101.0,13.3,1505.3,325.0,-0.7,1.9,2470.35,13.31,0.029,308.0
2020-05-08T00:10:03,42.805,6.029,-0.066,0.026,-0.042,102.0,106.0,101.0,13.3,1505.3,325.0,-0.7,1.8,2470.282,13.32,0.07,291.5
2020-05-08T00:13:03,42.805,6.029,-0.043,0.017,-0.031,101.0,107.0,100.0,13.3,1505.3,327.4,-0.7,1.8,2470.293,13.32,0.046,291.6
2020-05-08T00:16:03,42.805,6.029,-0.037,0.03,-0.027,103.0,107.0,100.0,13.4,1505.3,325.6,-0.7,1.8,2470.325,13.32,0.047,309.0
2020-05-08T00:19:03,42.805,6.029,-0.032,0.006,-0.041,104.0,107.0,101.0,13.4,1505.3,325.6,-0.6,1.8,2470.307,13.32,0.032,280.6
2020-05-08T00:22:03,42.805,6.029,-0.04,0.008,-0.051,104.0,108.0,101.0,13.4,1505.3,324.9,-0.7,1.8,2470.298,13.33,0.04,281.3
2020-05-08T00:25:03,42.805,6.029,-0.039,0.0,-0.006,103.0,106.0,101.0,13.4,1505.3,324.5,-0.6,1.8,2470.283,13.33,0.039,270.0
2020-05-08T00:28:03,42.805,6.029,-0.039,0.014,-0.046,104.0,106.0,101.0,13.4,1505.3,324.8,-0.7,1.9,2470.284,13.33,0.041,289.7
2020-05-08T00:31:03,42.805,6.029,-0.066,0.002,-0.077,103.0,107.0,102.0,13.3,1505.3,325.7,-0.7,1.9,2470.253,13.32,0.066,271.7
2020-05-08T00:34:03,42.805,6.029,-0.051,0.01,-0.012,103.0,106.0,101.0,13.4,1505.3,324.8,-0.7,1.8,2470.287,13.33,0.051,281.1
2020-05-08T00:37:03,42.805,6.029,-0.034,0.013,-0.033,103.0,107.0,102.0,13.4,1505.3,326.9,-0.7,1.8,2470.256,13.33,0.036,290.9
2020-05-08T00:40:03,42.805,6.029,-0.028,0.034,0.003,102.0,107.0,100.0,13.3,1505.3,326.0,-0.7,1.8,2470.26,13.33,0.044,320.5
2020-05-08T00:43:03,42.805,6.029,-0.036,0.002,-0.026,104.0,107.0,101.0,13.4,1505.3,328.4,-0.7,1.8,2470.251,13.33,0.036,273.2
2020-05-08T00:46:03,42.805,6.029,-0.032,0.007,-0.018,102.0,106.0,101.0,13.3,1505.3,323.1,-0.7,1.8,2470.269,13.33,0.032,282.3
2020-05-08T00:49:03,42.805,6.029,-0.025,0.011,-0.049,102.0,106.0,100.0,13.4,1505.3,323.3,-0.7,1.8,2470.269,13.33,0.027,293.7
2020-05-08T00:52:02,42.805,6.029,-0.047,0.035,-0.038,102.0,108.0,101.0,13.4,1505.3,324.4,-0.7,1.8,2470.263,13.33,0.058,306.7
2020-05-08T00:55:03,42.805,6.029,-0.018,0.018,-0.039,102.0,107.0,100.0,13.4,1505.3,326.2,-0.7,1.8,2470.227,13.33,0.025,315.0
2020-05-08T00:58:03,42.805,6.029,-0.05,0.024,-0.007,101.0,107.0,100.0,13.3,1505.3,325.3,-0.7,1.9,2470.222,13.33,0.055,295.6
2020-05-08T01:04:03,42.805,6.029,-0.014,0.023,-0.062,106.0,107.0,101.0,13.3,1505.3,326.2,-0.8,1.8,2470.252,13.31,0.026,328.7
2020-05-08T01:07:02,42.805,6.029,-0.041,0.032,-0.024,103.0,107.0,101.0,13.3,1505.3,328.7,-0.7,1.8,2470.257,13.31,0.052,308.0
2020-05-08T01:10:03,42.805,6.029,-0.037,0.026,-0.026,103.0,106.0,100.0,13.4,1505.3,324.9,-0.7,1.8,2470.236,13.32,0.045,305.1
2020-05-08T01:16:02,42.805,6.029,-0.058,0.019,-0.035,103.0,107.0,102.0,13.4,1505.2,324.9,-0.8,1.9,2470.265,13.3,0.061,288.1
2020-05-08T01:19:03,42.805,6.029,-0.046,0.016,-0.023,102.0,107.0,101.0,13.4,1505.3,324.8,-0.7,1.8,2470.252,13.31,0.048,289.2
2020-05-08T01:22:02,42.805,6.029,-0.043,0.028,-0.024,103.0,108.0,101.0,13.4,1505.3,323.3,-0.7,1.8,2470.298,13.32,0.051,303.1
2020-05-08T01:25:03,42.805,6.029,-0.022,0.019,-0.04,104.0,106.0,101.0,13.4,1505.3,326.5,-0.8,1.8,2470.261,13.32,0.029,310.8
2020-05-08T01:28:03,42.805,6.029,-0.014,0.001,-0.033,105.0,106.0,101.0,13.4,1505.3,326.2,-0.7,1.8,2470.261,13.32,0.014,274.1
2020-05-08T01:31:03,42.805,6.029,-0.01,0.013,-0.009,104.0,106.0,101.0,13.4,1505.3,327.8,-0.7,1.8,2470.254,13.32,0.016,322.4
2020-05-08T01:34:03,42.805,6.029,-0.028,0.025,-0.025,103.0,108.0,101.0,13.4,1505.3,324.1,-0.7,1.8,2470.275,13.33,0.037,311.8
2020-05-08T01:37:03,42.805,6.029,-0.036,0.028,-0.023,105.0,107.0,100.0,13.3,1505.3,326.7,-0.7,1.8,2470.239,13.33,0.045,307.9
2020-05-08T01:40:03,42.805,6.029,-0.044,0.018,-0.003,103.0,105.0,101.0,13.4,1505.3,327.1,-0.7,1.8,2470.174,13.33,0.047,292.2
2020-05-08T01:43:03,42.805,6.029,-0.038,0.018,0.007,103.0,106.0,101.0,13.4,1505.3,326.3,-0.7,1.9,2470.261,13.33,0.042,295.3
2020-05-08T01:46:03,42.805,6.029,-0.022,0.019,-0.017,102.0,107.0,100.0,13.4,1505.3,327.1,-0.7,1.8,2470.305,13.33,0.029,310.8
2020-05-08T01:49:03,42.805,6.029,-0.033,0.022,-0.016,103.0,105.0,100.0,13.4,1505.3,325.5,-0.7,1.8,2470.187,13.33,0.039,303.7
2020-05-08T01:52:02,42.805,6.029,-0.053,0.006,-0.044,102.0,108.0,101.0,13.3,1505.3,323.6,-0.7,1.8,2470.267,13.33,0.053,276.5
2020-05-08T01:55:03,42.805,6.029,-0.043,-0.005,-0.009,103.0,107.0,100.0,13.4,1505.3,323.3,-0.7,1.8,2470.253,13.33,0.043,263.4
2020-05-08T01:58:03,42.805,6.029,-0.042,0.015,-0.012,103.0,104.0,102.0,13.4,1505.3,325.9,-0.7,1.8,2470.208,13.33,0.044,289.6
2020-05-08T02:04:03,42.805,6.029,-0.051,0.028,-0.035,102.0,107.0,101.0,13.4,1505.3,325.4,-0.8,1.8,2470.292,13.31,0.058,298.8
2020-05-08T02:07:03,42.805,6.029,-0.04,0.013,-0.026,104.0,107.0,101.0,13.3,1505.3,324.7,-0.7,1.9,2470.249,13.31,0.042,288.0
2020-05-08T02:10:03,42.805,6.029,-0.029,0.029,-0.05,103.0,107.0,101.0,13.4,1505.3,324.7,-0.7,1.8,2470.234,13.32,0.041,315.0
2020-05-08T02:13:03,42.805,6.029,-0.041,0.012,-0.031,104.0,106.0,101.0,13.4,1505.3,326.6,-0.7,1.8,2470.212,13.32,0.042,286.3
2020-05-08T02:16:03,42.805,6.029,-0.042,0.036,-0.045,102.0,107.0,101.0,13.3,1505.3,325.6,-0.7,1.8,2470.233,13.32,0.055,310.6
2020-05-08T02:19:03,42.805,6.029,-0.022,0.008,-0.01,102.0,107.0,100.0,13.4,1505.3,326.4,-0.7,1.9,2470.233,13.33,0.023,290.0
2020-05-08T02:22:03,42.805,6.029,-0.043,0.011,-0.023,103.0,106.0,102.0,13.4,1505.3,326.7,-0.7,1.8,2470.182,13.33,0.044,284.3
2020-05-08T02:25:03,42.805,6.029,-0.032,0.023,-0.045,104.0,108.0,100.0,13.3,1505.3,326.1,-0.7,1.8,2470.26,13.33,0.039,305.7
2020-05-08T02:28:03,42.805,6.029,-0.039,0.007,-0.02,104.0,106.0,99.0,13.4,1505.3,326.1,-0.7,1.8,2470.189,13.33,0.039,280.2
2020-05-08T02:31:03,42.805,6.029,-0.054,0.015,-0.056,104.0,107.0,101.0,13.3,1505.3,325.3,-0.7,1.8,2470.226,13.33,0.056,285.5
2020-05-08T02:34:03,42.805,6.029,-0.037,0.017,-0.061,102.0,105.0,101.0,13.4,1505.3,323.0,-0.7,1.8,2470.18,13.33,0.04,294.7
2020-05-08T02:37:03,42.805,6.029,-0.014,0.023,-0.018,104.0,106.0,101.0,13.4,1505.3,326.4,-0.7,1.8,2470.254,13.33,0.026,328.7
2020-05-08T02:40:03,42.805,6.029,-0.047,0.016,-0.03,104.0,105.0,101.0,13.4,1505.3,325.1,-0.7,1.8,2470.191,13.33,0.049,288.8
2020-05-08T02:43:03,42.805,6.029,-0.06,0.035,-0.029,102.0,105.0,102.0,13.3,1505.3,328.0,-0.8,1.8,2470.204,13.33,0.069,300.3
2020-05-08T02:46:03,42.805,6.029,-0.047,0.045,-0.015,104.0,106.0,100.0,13.4,1505.3,327.9,-0.7,1.8,2470.221,13.33,0.065,313.8
2020-05-08T02:49:03,42.805,6.029,-0.047,0.021,-0.066,103.0,106.0,100.0,13.3,1505.3,324.9,-0.7,1.8,2470.209,13.33,0.051,294.1
2020-05-08T02:52:03,42.805,6.029,-0.07,0.029,-0.048,103.0,107.0,100.0,13.4,1505.3,326.6,-0.7,1.8,2470.253,13.33,0.075,292.5
2020-05-08T02:55:03,42.805,6.029,-0.042,0.014,-0.032,101.0,107.0,101.0,13.4,1505.3,326.0,-0.7,1.8,2470.215,13.33,0.044,288.4
2020-05-08T02:58:03,42.805,6.029,-0.04,0.037,-0.022,104.0,107.0,100.0,13.3,1505.3,327.3,-0.7,1.8,2470.21,13.33,0.054,312.8
2020-05-08T03:04:03,42.805,6.029,-0.042,0.03,-0.029,102.0,107.0,101.0,13.4,1505.3,324.9,-0.7,1.8,2470.293,13.31,0.051,305.5
2020-05-08T03:07:03,42.805,6.029,-0.044,0.031,-0.003,100.0,107.0,101.0,13.4,1505.3,327.8,-0.7,1.8,2470.281,13.31,0.053,305.2
2020-05-08T03:10:03,42.805,6.029,-0.06,0.029,-0.023,102.0,107.0,100.0,13.4,1505.3,326.0,-0.7,1.8,2470.25,13.32,0.066,295.8
2020-05-08T03:13:03,42.805,6.029,-0.044,0.016,-0.05,103.0,107.0,101.0,13.3,1505.3,325.2,-0.7,1.8,2470.229,13.32,0.046,290.0
2020-05-08T03:16:03,42.805,6.029,-0.036,0.014,-0.039,104.0,107.0,101.0,13.4,1505.3,328.4,-0.7,1.8,2470.268,13.32,0.038,291.2
2020-05-08T03:19:03,42.805,6.029,-0.039,0.049,-0.017,103.0,106.0,101.0,13.4,1505.3,324.9,-0.7,1.8,2470.274,13.33,0.062,321.5
2020-05-08T03:22:02,42.805,6.029,-0.023,0.02,-0.029,104.0,107.0,101.0,13.3,1505.3,324.3,-0.7,1.8,2470.288,13.33,0.03,311.0
2020-05-08T03:25:03,42.805,6.029,-0.055,0.036,-0.024,103.0,107.0,102.0,13.4,1505.3,323.0,-0.7,1.8,2470.257,13.33,0.065,303.2
2020-05-08T03:28:03,42.805,6.029,-0.03,0.03,-0.026,103.0,107.0,101.0,13.4,1505.3,326.0,-0.7,1.8,2470.285,13.33,0.042,315.0
2020-05-08T03:31:03,42.805,6.029,-0.032,0.011,-0.004,102.0,106.0,101.0,13.3,1505.3,327.1,-0.7,1.8,2470.287,13.33,0.033,289.0
2020-05-08T03:34:03,42.805,6.029,-0.058,0.042,-0.035,102.0,107.0,100.0,13.3,1505.3,325.1,-0.7,1.8,2470.24,13.33,0.071,305.9
2020-05-08T03:37:02,42.805,6.029,-0.051,0.021,-0.044,102.0,107.0,100.0,13.4,1505.3,324.9,-0.7,1.8,2470.242,13.33,0.055,292.4
2020-05-08T03:40:03,42.805,6.029,-0.049,0.008,-0.017,102.0,108.0,100.0,13.4,1505.3,323.3,-0.7,1.8,2470.289,13.33,0.049,279.3
2020-05-08T03:43:03,42.805,6.029,-0.04,0.011,-0.04,102.0,106.0,101.0,13.4,1505.3,325.5,-0.7,1.8,2470.285,13.33,0.041,285.4
2020-05-08T03:46:03,42.805,6.029,-0.058,0.012,-0.046,103.0,107.0,100.0,13.4,1505.3,328.0,-0.7,1.8,2470.279,13.33,0.059,281.7
2020-05-08T03:49:03,42.805,6.029,-0.045,0.038,-0.029,103.0,107.0,100.0,13.4,1505.3,327.2,-0.7,1.8,2470.282,13.33,0.058,310.2
2020-05-08T03:52:03,42.805,6.029,-0.033,0.026,-0.038,103.0,108.0,100.0,13.4,1505.3,328.6,-0.7,1.8,2470.277,13.33,0.042,308.2
2020-05-08T03:55:03,42.805,6.029,-0.034,0.026,-0.025,104.0,107.0,100.0,13.4,1505.3,326.8,-0.7,1.8,2470.225,13.33,0.042,307.4
2020-05-08T03:58:03,42.805,6.029,-0.03,0.024,-0.003,102.0,107.0,100.0,13.4,1505.3,324.7,-0.7,1.8,2470.289,13.33,0.038,308.7
2020-05-08T04:04:03,42.805,6.029,-0.059,0.022,-0.052,103.0,107.0,101.0,13.4,1505.3,326.2,-0.8,1.8,2470.324,13.31,0.062,290.4
2020-05-08T04:07:03,42.805,6.029,-0.05,0.018,-0.055,103.0,109.0,100.0,13.4,1505.3,324.8,-0.7,1.9,2470.308,13.31,0.053,289.8
2020-05-08T04:10:03,42.805,6.029,-0.041,0.015,-0.038,103.0,107.0,101.0,13.3,1505.3,327.7,-0.7,1.8,2470.254,13.32,0.043,290.1
2020-05-08T04:13:03,42.805,6.029,-0.037,0.03,-0.012,103.0,108.0,100.0,13.4,1505.3,327.6,-0.7,1.8,2470.323,13.32,0.047,309.0
2020-05-08T04:16:03,42.805,6.029,-0.021,0.028,-0.009,102.0,106.0,101.0,13.4,1505.3,327.7,-0.7,1.8,2470.314,13.32,0.035,323.1
2020-05-08T04:19:03,42.805,6.029,-0.045,0.028,-0.023,102.0,107.0,101.0,13.4,1505.3,324.1,-0.7,1.8,2470.338,13.33,0.053,301.9
2020-05-08T04:22:03,42.805,6.029,-0.029,0.039,-0.004,104.0,105.0,102.0,13.4,1505.3,326.7,-0.7,1.8,2470.246,13.33,0.048,323.4
2020-05-08T04:25:03,42.805,6.029,-0.058,0.016,-0.029,103.0,107.0,102.0,13.3,1505.3,325.8,-0.7,1.8,2470.307,13.33,0.06,285.4
2020-05-08T04:28:03,42.805,6.029,-0.055,0.01,-0.03,104.0,106.0,100.0,13.4,1505.3,323.2,-0.7,1.8,2470.316,13.33,0.055,280.3
2020-05-08T04:31:03,42.805,6.029,-0.053,0.014,-0.03,103.0,107.0,101.0,13.4,1505.3,326.4,-0.6,1.8,2470.33,13.33,0.054,284.8
2020-05-08T04:34:03,42.805,6.029,-0.039,0.042,-0.02,102.0,107.0,101.0,13.3,1505.3,325.4,-0.7,1.8,2470.326,13.33,0.057,317.1
2020-05-08T04:37:02,42.805,6.029,-0.06,0.015,-0.054,104.0,107.0,100.0,13.3,1505.3,326.6,-0.7,1.8,2470.34,13.33,0.061,284.0
2020-05-08T04:40:03,42.805,6.029,-0.044,0.025,-0.031,103.0,107.0,100.0,13.4,1505.3,324.5,-0.7,1.8,2470.262,13.33,0.05,299.6
2020-05-08T04:43:03,42.805,6.029,-0.066,0.012,-0.048,102.0,107.0,101.0,13.4,1505.3,324.5,-0.7,1.8,2470.285,13.33,0.067,280.3
2020-05-08T04:46:03,42.805,6.029,-0.029,0.037,-0.017,103.0,107.0,101.0,13.3,1505.3,326.8,-0.7,1.8,2470.277,13.33,0.047,321.9
2020-05-08T04:49:03,42.805,6.029,-0.038,0.016,-0.025,102.0,108.0,100.0,13.4,1505.3,326.5,-0.7,1.8,2470.322,13.33,0.041,292.8
2020-05-08T04:52:03,42.805,6.029,-0.033,0.018,-0.029,102.0,108.0,101.0,13.4,1505.3,326.7,-0.7,1.8,2470.363,13.33,0.037,298.6
2020-05-08T04:55:03,42.805,6.029,-0.015,0.014,-0.005,103.0,108.0,102.0,13.4,1505.3,326.7,-0.7,1.8,2470.319,13.33,0.02,313.0
2020-05-08T04:58:03,42.805,6.029,-0.036,0.029,-0.04,105.0,106.0,101.0,13.4,1505.3,325.2,-0.7,1.8,2470.316,13.33,0.046,308.9
2020-05-08T05:04:03,42.805,6.029,-0.036,0.012,-0.043,104.0,106.0,102.0,13.4,1505.3,325.6,-0.8,1.8,2470.378,13.31,0.037,288.4
2020-05-08T05:07:03,42.805,6.029,-0.022,0.023,-0.005,104.0,108.0,101.0,13.3,1505.3,326.8,-0.7,1.8,2470.435,13.31,0.031,316.3
2020-05-08T05:10:03,42.805,6.029,-0.051,0.03,-0.042,103.0,108.0,101.0,13.4,1505.3,327.2,-0.7,1.8,2470.372,13.32,0.059,300.5
2020-05-08T05:13:03,42.805,6.029,-0.038,0.045,-0.03,102.0,106.0,102.0,13.4,1505.3,328.5,-0.7,1.8,2470.376,13.32,0.058,319.8
2020-05-08T05:16:03,42.805,6.029,-0.048,0.039,-0.031,103.0,107.0,102.0,13.4,1505.3,325.4,-0.7,1.8,2470.338,13.32,0.061,309.1
2020-05-08T05:19:03,42.805,6.029,-0.02,0.035,-0.022,103.0,109.0,101.0,13.4,1505.3,324.3,-0.7,1.8,2470.339,13.33,0.04,330.3
2020-05-08T05:22:03,42.805,6.029,-0.073,0.036,-0.03,104.0,108.0,101.0,13.4,1505.3,325.5,-0.7,1.9,2470.368,13.33,0.081,296.2
2020-05-08T05:25:03,42.805,6.029,-0.058,0.025,-0.02,104.0,108.0,100.0,13.4,1505.3,328.0,-0.7,1.8,2470.344,13.33,0.063,293.3
2020-05-08T05:28:03,42.805,6.029,-0.028,0.014,-0.045,102.0,107.0,101.0,13.4,1505.3,327.4,-0.7,1.8,2470.386,13.33,0.031,296.6
2020-05-08T05:31:03,42.805,6.029,-0.047,0.027,-0.023,103.0,107.0,101.0,13.3,1505.3,326.4,-0.7,1.8,2470.38,13.33,0.054,299.9
2020-05-08T05:34:03,42.805,6.029,-0.022,0.029,0.0,104.0,107.0,100.0,13.4,1505.3,323.9,-0.7,1.8,2470.355,13.33,0.036,322.8
2020-05-08T05:37:02,42.805,6.029,-0.018,0.019,-0.037,102.0,108.0,100.0,13.4,1505.3,325.1,-0.7,1.8,2470.391,13.33,0.026,316.5
2020-05-08T05:40:03,42.805,6.029,-0.031,0.025,-0.021,104.0,107.0,104.0,13.4,1505.3,323.4,-0.7,1.8,2470.355,13.33,0.039,308.9
2020-05-08T05:43:03,42.805,6.029,-0.032,0.043,-0.037,102.0,109.0,101.0,13.4,1505.3,328.6,-0.7,1.9,2470.392,13.33,0.053,323.3
2020-05-08T05:46:03,42.805,6.029,-0.029,0.024,-0.041,104.0,108.0,100.0,13.4,1505.3,326.7,-0.7,1.9,2470.343,13.33,0.037,309.6
2020-05-08T05:49:03,42.805,6.029,-0.054,0.026,-0.01,102.0,108.0,101.0,13.4,1505.3,325.0,-0.7,1.8,2470.371,13.33,0.059,295.7
2020-05-08T05:52:03,42.805,6.029,-0.068,0.028,-0.058,104.0,108.0,99.0,13.3,1505.3,326.4,-0.7,1.8,2470.367,13.33,0.073,292.4
2020-05-08T05:55:03,42.805,6.029,-0.02,0.03,-0.032,104.0,107.0,101.0,13.4,1505.3,326.5,-0.7,1.8,2470.422,13.33,0.036,326.3
2020-05-08T05:58:03,42.805,6.029,-0.032,0.013,-0.03,102.0,108.0,101.0,13.4,1505.3,325.3,-0.7,1.8,2470.384,13.33,0.034,292.1
2020-05-08T06:04:03,42.805,6.029,-0.045,0.041,-0.028,101.0,110.0,101.0,13.3,1505.3,325.4,-0.7,1.9,2470.486,13.31,0.06,312.3
2020-05-08T06:07:03,42.805,6.029,-0.063,0.022,-0.016,103.0,109.0,101.0,13.4,1505.3,325.3,-0.7,1.8,2470.415,13.31,0.066,289.2
2020-05-08T06:10:03,42.805,6.029,-0.062,0.025,-0.06,104.0,108.0,99.0,13.4,1505.3,326.4,-0.7,1.9,2470.414,13.32,0.066,292.0
2020-05-08T06:13:03,42.805,6.029,-0.04,0.027,-0.041,104.0,108.0,101.0,13.4,1505.3,324.3,-0.7,1.8,2470.408,13.32,0.048,304.0
2020-05-08T06:16:03,42.805,6.029,-0.006,0.033,-0.012,103.0,108.0,101.0,13.4,1505.3,324.6,-0.7,1.8,2470.426,13.32,0.033,349.7
2020-05-08T06:19:03,42.805,6.029,-0.045,0.045,-0.013,103.0,107.0,101.0,13.3,1505.3,328.1,-0.7,1.8,2470.435,13.33,0.063,315.0
2020-05-08T06:22:03,42.805,6.029,-0.061,0.048,-0.033,102.0,108.0,101.0,13.4,1505.3,326.3,-0.7,1.8,2470.467,13.33,0.077,308.2
2020-05-08T06:25:03,42.805,6.029,-0.03,0.011,-0.05,104.0,107.0,101.0,13.4,1505.3,324.5,-0.7,1.8,2470.397,13.33,0.031,290.1
2020-05-08T06:28:03,42.805,6.029,-0.046,0.02,-0.066,102.0,109.0,100.0,13.4,1505.3,324.4,-0.7,1.8,2470.455,13.33,0.05,293.5
2020-05-08T06:31:03,42.805,6.029,-0.028,0.019,-0.031,102.0,109.0,101.0,13.3,1505.3,326.9,-0.7,1.9,2470.402,13.33,0.033,304.2
2020-05-08T06:34:03,42.805,6.029,-0.025,0.022,-0.019,103.0,110.0,100.0,13.4,1505.3,325.3,-0.7,1.8,2470.456,13.33,0.033,311.3
2020-05-08T06:37:03,42.805,6.029,-0.032,0.046,-0.003,104.0,107.0,100.0,13.3,1505.3,324.0,-0.7,1.9,2470.405,13.33,0.056,325.2
2020-05-08T06:40:03,42.805,6.029,-0.025,0.038,0.017,104.0,109.0,99.0,13.4,1505.3,328.1,-0.7,1.9,2470.438,13.33,0.045,326.7
2020-05-08T06:43:03,42.805,6.029,-0.038,0.041,-0.048,103.0,109.0,100.0,13.4,1505.3,327.3,-0.7,1.8,2470.452,13.33,0.055,317.2
2020-05-08T06:46:03,42.805,6.029,-0.024,0.024,-0.016,102.0,109.0,100.0,13.4,1505.3,327.8,-0.7,1.8,2470.446,13.33,0.033,315.0
2020-05-08T06:49:03,42.805,6.029,-0.046,0.032,-0.041,104.0,107.0,101.0,13.3,1505.3,325.9,-0.7,1.8,2470.415,13.33,0.056,304.8
2020-05-08T06:52:03,42.805,6.029,-0.025,0.041,-0.035,103.0,108.0,100.0,13.3,1505.3,327.1,-0.7,1.8,2470.397,13.33,0.048,328.6
2020-05-08T06:55:03,42.805,6.029,-0.032,0.048,-0.026,104.0,106.0,100.0,13.4,1505.3,325.4,-0.7,1.8,2470.436,13.33,0.057,326.3
2020-05-08T06:58:03,42.805,6.029,-0.043,0.02,-0.051,103.0,106.0,100.0,13.4,1505.3,324.5,-0.7,1.8,2470.433,13.33,0.047,294.9
2020-05-08T07:04:03,42.805,6.029,-0.017,0.061,-0.024,103.0,108.0,101.0,13.3,1505.3,322.9,-0.8,1.8,2470.438,13.31,0.063,344.4
2020-05-08T07:07:03,42.805,6.029,-0.039,0.026,-0.041,103.0,108.0,101.0,13.3,1505.3,325.8,-0.7,1.8,2470.478,13.32,0.046,303.7
2020-05-08T07:10:03,42.805,6.029,-0.032,0.035,-0.018,103.0,111.0,100.0,13.4,1505.3,324.2,-0.7,1.8,2470.474,13.32,0.047,317.6
2020-05-08T07:13:03,42.805,6.029,-0.011,0.039,0.017,102.0,109.0,101.0,13.4,1505.3,324.5,-0.7,1.9,2470.446,13.32,0.04,344.3
2020-05-08T07:16:03,42.805,6.029,-0.03,0.025,-0.032,104.0,109.0,102.0,13.4,1505.3,326.1,-0.7,1.8,2470.481,13.32,0.039,309.8
2020-05-08T07:19:03,42.805,6.029,-0.06,0.031,-0.019,103.0,109.0,100.0,13.3,1505.3,325.7,-0.7,1.8,2470.455,13.32,0.067,297.3
2020-05-08T07:22:03,42.805,6.029,-0.014,0.045,-0.004,103.0,109.0,100.0,13.3,1505.3,324.5,-0.7,1.8,2470.457,13.32,0.047,342.7
2020-05-08T07:25:03,42.805,6.029,-0.03,0.042,0.0,103.0,110.0,101.0,13.3,1505.3,325.1,-0.7,1.9,2470.458,13.32,0.051,324.5
2020-05-08T07:28:03,42.805,6.029,-0.003,0.016,-0.018,104.0,109.0,101.0,13.3,1505.3,323.4,-0.7,1.8,2470.462,13.33,0.016,349.4
2020-05-08T07:31:03,42.805,6.029,-0.05,0.032,-0.03,104.0,110.0,101.0,13.4,1505.3,325.3,-0.7,1.8,2470.46,13.33,0.059,302.6
2020-05-08T07:34:03,42.805,6.029,-0.018,0.049,-0.034,105.0,107.0,101.0,13.4,1505.3,324.9,-0.7,1.8,2470.432,13.33,0.052,339.8
2020-05-08T07:37:03,42.805,6.029,-0.033,0.051,-0.025,103.0,109.0,101.0,13.3,1505.3,327.8,-0.7,1.8,2470.441,13.33,0.06,327.1
2020-05-08T07:40:03,42.805,6.029,-0.023,0.025,-0.02,104.0,109.0,100.0,13.4,1505.3,325.6,-0.7,1.8,2470.447,13.33,0.033,317.4
2020-05-08T07:43:03,42.805,6.029,-0.046,0.039,-0.083,104.0,108.0,101.0,13.4,1505.3,326.3,-0.7,1.8,2470.457,13.33,0.06,310.3
2020-05-08T07:46:03,42.805,6.029,-0.027,0.029,-0.028,102.0,109.0,101.0,13.4,1505.3,328.1,-0.7,1.8,2470.496,13.33,0.039,317.0
2020-05-08T07:49:03,42.805,6.029,-0.043,0.036,-0.042,104.0,107.0,101.0,13.3,1505.3,323.6,-0.7,1.9,2470.433,13.33,0.056,309.9
2020-05-08T07:52:03,42.805,6.029,-0.051,0.045,-0.014,103.0,109.0,102.0,13.4,1505.3,326.4,-0.7,1.8,2470.447,13.33,0.068,311.4
2020-05-08T07:55:03,42.805,6.029,-0.049,0.042,-0.04,105.0,108.0,101.0,13.3,1505.3,327.1,-0.7,1.8,2470.43,13.33,0.064,310.6
2020-05-08T07:58:03,42.805,6.029,-0.029,0.034,-0.001,104.0,109.0,101.0,13.4,1505.3,326.4,-0.7,1.9,2470.448,13.33,0.044,319.5
2020-05-08T08:04:02,42.805,6.029,-0.023,0.038,-0.039,103.0,110.0,101.0,13.4,1505.3,323.1,-0.7,1.8,2470.451,13.31,0.044,328.8
2020-05-08T08:07:03,42.805,6.029,-0.025,0.02,0.0,104.0,108.0,101.0,13.4,1505.3,325.2,-0.7,1.9,2470.446,13.31,0.032,308.7
2020-05-08T08:10:03,42.805,6.029,-0.034,0.028,-0.036,103.0,110.0,103.0,13.4,1505.3,322.9,-0.7,1.8,2470.463,13.32,0.044,309.5
2020-05-08T08:13:03,42.805,6.029,-0.029,0.022,-0.021,104.0,108.0,101.0,13.4,1505.3,325.6,-0.7,1.8,2470.434,13.32,0.036,307.2
2020-05-08T08:16:03,42.805,6.029,-0.052,0.032,-0.019,104.0,108.0,103.0,13.3,1505.3,324.6,-0.6,1.8,2470.458,13.32,0.061,301.6
2020-05-08T08:19:03,42.805,6.029,-0.026,0.033,-0.029,104.0,109.0,101.0,13.3,1505.3,325.8,-0.7,1.8,2470.437,13.33,0.042,321.8
2020-05-08T08:22:03,42.805,6.029,-0.038,0.024,-0.028,105.0,109.0,101.0,13.4,1505.3,326.1,-0.7,1.8,2470.441,13.33,0.044,302.3
2020-05-08T08:25:03,42.805,6.029,-0.064,0.012,-0.021,104.0,110.0,102.0,13.3,1505.3,327.9,-0.7,1.8,2470.482,13.33,0.065,280.6
2020-05-08T08:28:03,42.805,6.029,-0.031,0.037,-0.012,104.0,110.0,102.0,13.3,1505.3,328.1,-0.7,1.8,2470.442,13.33,0.048,320.0
2020-05-08T08:31:03,42.805,6.029,-0.026,0.031,-0.023,104.0,109.0,101.0,13.4,1505.3,326.0,-0.7,1.8,2470.426,13.33,0.04,320.0
2020-05-08T08:34:03,42.805,6.029,-0.042,0.026,-0.042,104.0,109.0,101.0,13.4,1505.3,327.8,-0.7,1.8,2470.482,13.33,0.049,301.8
2020-05-08T08:37:03,42.805,6.029,0.006,0.007,0.015,102.0,109.0,101.0,13.4,1505.3,327.3,-0.7,1.8,2470.434,13.33,0.009,40.6
2020-05-08T08:40:03,42.805,6.029,-0.022,0.018,-0.009,105.0,110.0,101.0,13.4,1505.3,326.7,-0.7,1.8,2470.45,13.33,0.028,309.3
2020-05-08T08:43:03,42.805,6.029,-0.036,0.021,-0.02,105.0,108.0,103.0,13.3,1505.3,323.4,-0.7,1.8,2470.394,13.33,0.041,300.3
2020-05-08T08:46:03,42.805,6.029,-0.01,0.039,-0.03,103.0,109.0,101.0,13.4,1505.3,325.6,-0.7,1.8,2470.459,13.33,0.04,345.6
2020-05-08T08:49:03,42.805,6.029,-0.067,0.027,-0.04,103.0,109.0,101.0,13.4,1505.3,324.8,-0.7,1.8,2470.415,13.33,0.072,291.9
2020-05-08T08:52:02,42.805,6.029,-0.047,0.027,-0.006,103.0,108.0,101.0,13.3,1505.3,326.3,-0.7,1.9,2470.411,13.33,0.054,299.9
2020-05-08T08:55:03,42.805,6.029,-0.061,0.043,-0.027,104.0,110.0,102.0,13.4,1505.3,324.4,-0.7,1.9,2470.416,13.33,0.074,305.2
2020-05-08T08:58:03,42.805,6.029,-0.025,0.036,-0.012,105.0,108.0,102.0,13.4,1505.3,326.1,-0.7,1.8,2470.398,13.33,0.043,325.2
2020-05-08T09:04:02,42.805,6.029,-0.033,0.053,-0.002,103.0,110.0,100.0,13.4,1505.3,326.8,-0.7,1.8,2470.441,13.31,0.062,328.1
2020-05-08T09:07:03,42.805,6.029,-0.014,0.047,-0.004,105.0,107.0,102.0,13.3,1505.3,326.8,-0.7,1.8,2470.43,13.31,0.049,343.4
2020-05-08T09:10:03,42.805,6.029,-0.014,0.033,0.012,103.0,109.0,101.0,13.4,1505.3,324.4,-0.7,1.8,2470.431,13.32,0.035,337.0
2020-05-08T09:13:03,42.805,6.029,-0.011,0.037,-0.008,104.0,109.0,101.0,13.4,1505.3,324.3,-0.7,1.8,2470.421,13.32,0.038,343.4
2020-05-08T09:16:03,42.805,6.029,-0.008,0.03,-0.03,104.0,109.0,101.0,13.3,1505.3,325.8,-0.7,1.8,2470.375,13.32,0.031,345.1
2020-05-08T09:19:03,42.805,6.029,-0.026,0.018,-0.011,104.0,108.0,100.0,13.4,1505.3,325.0,-0.7,1.9,2470.408,13.33,0.031,304.7
2020-05-08T09:22:03,42.805,6.029,-0.026,0.013,-0.02,105.0,108.0,101.0,13.4,1505.3,326.5,-0.7,1.8,2470.382,13.33,0.029,296.6
2020-05-08T09:25:03,42.805,6.029,-0.035,0.034,-0.03,105.0,107.0,101.0,13.4,1505.3,323.9,-0.7,1.8,2470.364,13.33,0.048,314.2
2020-05-08T09:28:03,42.805,6.029,-0.021,0.011,-0.049,103.0,108.0,101.0,13.4,1505.3,325.2,-0.7,1.9,2470.407,13.33,0.023,297.6
2020-05-08T09:31:03,42.805,6.029,-0.043,0.025,-0.047,109.0,109.0,101.0,13.3,1505.3,322.8,-0.7,1.8,2470.401,13.33,0.049,300.2
2020-05-08T09:34:03,42.805,6.029,-0.008,0.018,-0.048,104.0,108.0,102.0,13.3,1505.3,326.7,-0.7,1.8,2470.372,13.33,0.019,336.0
2020-05-08T09:37:03,42.805,6.029,-0.014,0.026,-0.04,105.0,108.0,102.0,13.4,1505.3,325.9,-0.7,1.8,2470.363,13.33,0.029,331.7
2020-05-08T09:40:03,42.805,6.029,-0.054,0.034,-0.05,105.0,110.0,101.0,13.4,1505.3,324.0,-0.7,1.8,2470.4,13.33,0.063,302.2
2020-05-08T09:43:03,42.805,6.029,-0.002,0.038,0.0,104.0,107.0,102.0,13.4,1505.3,323.3,-0.7,1.8,2470.337,13.33,0.038,357.0
2020-05-08T09:46:03,42.805,6.029,-0.023,0.03,-0.021,103.0,110.0,101.0,13.4,1505.3,326.2,-0.7,1.8,2470.406,13.33,0.037,322.5
2020-05-08T09:49:03,42.805,6.029,-0.03,0.03,-0.009,103.0,109.0,101.0,13.3,1505.3,328.2,-0.7,1.8,2470.409,13.33,0.042,315.0
2020-05-08T09:52:03,42.805,6.029,-0.015,0.036,0.0,105.0,108.0,101.0,13.4,1505.3,323.6,-0.7,1.8,2470.338,13.33,0.039,337.4
2020-05-08T09:55:03,42.805,6.029,-0.031,0.035,-0.042,102.0,109.0,100.0,13.4,1505.3,327.2,-0.7,1.8,2470.411,13.33,0.046,318.5
2020-05-08T09:58:03,42.805,6.029,-0.046,0.034,-0.043,103.0,109.0,100.0,13.4,1505.3,328.7,-0.7,1.9,2470.374,13.33,0.057,306.5